Showing default

POLAR SCOUT KODIAK, 43764

Orbit data source: Space-Track

POLAR SCOUT KODIAK, 43764 is an American payload satellite in SSO that was launched on Mon, 03 Dec 2018 UTC via an FALCON 9 launch vehicle from the Air Force Western Test Range (AFWTR). Payload-class satellites include a variety of spacecraft equipped with specific instruments for various scientific and technological missions. These include communications satellites like Starlink; space stations such as the ISS; scientific satellites like the Hubble; Earth observation satellites from companies like Planet Labs, Umbra, and HawkEye 360; GPS; miniature CubeSats for education and research; and military/defense satellites.

Not visible in the next 10 days
Identifier
43764, 2018-099G
Orbit
SSO
Country
Flag of USUS
Related business
Manufacturer
Millenium EI
Mission
Operational Defense Technology
Bus & Motor
CUBESAT 6U, Unknown motor
Mass
10 kg wet, 10 kg dry
Launch date (UTC)
2018-12-03 (7 years ago)
Launch vehicle
FALCON 9
Launch site
Air Force Western Test Range (AFWTR)
Object type
Payload
Rocket body
Debris
Shape & HBR
Box + 3 Pan, 0.3 m
Radar Cross Section
0.054 m², Medium (>0.1 m² and < 1m²)

Expand to show TLE details & history
Last TLE update: 9 hours ago

TLE from 9 hours ago
0 POLAR SCOUT KODIAK
1 43764U 18099G   26126.73895262  .00097994  00000-0  89739-3 0  9997
2 43764  97.4171 207.8616 0002231   2.2026 357.9244 15.67474400408425
Epoch: 2026-05-06T17:44Z
TLE epoch observation values (Epoch: 2026-05-06T17:44:05.506Z)
Latitude
-0.00003°
Longitude
77.24354°
Altitude
367.782 km
Speed
7.69 km/s
True Right ascension
13h 51m 26s
True Declination
0° 00' 00"
Sunlit
Object was in full shadow at epoch
Visualization orbit readout
Latitude
Unknown
Longitude
Unknown
Altitude
Unknown
Speed
Unknown
Apparent Right ascension
Unknown
Apparent Declination
Unknown
Sunlit
N/A
Visualization observer readout
Local Sidereal Time
10:21:47
Azimuth
Unknown
Elevation
Unknown
Doppler factor
Unknown
Orbital elements
Apogee altitude
364.539 km
Perigee altitude
361.531 km
Semi-major axis
6,741.172 km
Eccentricity
0.00022
Inclination
97.4171°
RAAN
207.8616°
Arg. of periapsis
2.2026°
True anomaly
357.92347°
Mean anomaly
357.9244°
Eccentric anomaly
357.92394°
Mean motion
3.92139 °/min
Orbital period
91.8 mins
BSTAR
0.00089739
Loading maneuver chart data...
Computing Atmospheric mass density...
Loading historical data...
Loading historical data...
Loading historical data...
Loading historical data...
Loading historical data...
Loading historical data...
Loading historical data...

Documentation

Showing up to 5 results
|